一网星座-0365星 (ONEWEB-0365 )

导读

ONEWEB-0365是英国OneWeb低轨卫星通信星座中的一颗卫星,于2021年10月14日发射入轨。OneWeb星座通过部署大量低轨卫星,旨在为全球提供高速低延迟宽带网络服务,覆盖偏远地区、海上、空中等场景,支撑应急通信、物联网等多样化应用,该卫星作为星座组网的组成单元,助力OneWeb实现全球网络覆盖的建设目标。

基本信息
目录编号:
49291
目录名称:
ONEWEB-0365
国际标识:
2021-090N
轨道中心:
EARTH
卫星名称:
一网星座-0365星
卫星全名:
一网星座-0365星 (ONEWEB-0365 )
卫星状态:
在轨 (已飞行1704 天)
发射日期:
2021-10-14 UTC
国别 :
英国 (GB)
星等 :
--
轨道信息
数据来源 国际轨道数据
星历时间: 2026-06-14T06:14:17+0800
13小时前
查看轨道信息
半长轴: 7563.909km
偏心率: 0.0001772
轨道倾角: 87.917°
近地点辐角 100.046°
升交点赤经 305.616°
平近点角 260.087°
近地点: 1184.431km
远地点: 1187.113km
周期: 109.114分钟
每日圈数: 13.197248
详细信息
平衡模式:
三轴稳定
覆盖范围:
全球
运营商:
一网卫星公司
运营商所在国:
英国
制造商(研发单位):
一网卫星公司
制造商所在国:
英国
使用方式:
暂无
卫星简介
OneWeb卫星网络由648颗重约125公斤的微型卫星组成,运行在1200公里的轨道上。 每颗卫星都能够提供至少每秒8千兆位的吞吐量,以使用其高吞吐量的Ku频段有效载荷为家庭和移动平台提供互联网接入。该卫星仍在工作。
2D轨道图
3D轨道图
轨道高度分析图
轨道倾角分析图
轨道综合分析图
查看轨道综合分析图